CZ-6A DEB, 54936

Orbit data source: Space-Track

CZ-6A DEB, 54936 is space debris in SSO originally from a launch on Fri, 11 Nov 2022 UTC launched from the Taiyaun Space Center, China (TSC). Debris objects in space refer to the collection of defunct objects orbiting the Earth. Examples of debris include non-operational satellites, rocket bodies, and fragments generated from explosions, collisions, or faulty payload assembly.

Loading next visibility...
Identifier
54936, 2022-151RZ
Orbit
SSO
Country
Flag of CNCN / PRC
Related business
Manufacturer
SAST
Mission
Spacecraft
Bus & Motor
Unknown
Mass
Unknown
Launch date (UTC)
2022-11-11 (4 years ago)
Launch vehicle
Unknown
Launch site
Taiyaun Space Center, China (TSC)
Object type
Payload
Rocket body
Debris
Shape & HBR
Unknown shape, 0.1 m
Radar Cross Section
Medium (>0.1 m² and <1 m²)

Expand to show TLE details & history
Last TLE update: 2 days ago

TLE from 2 days ago
0 CZ-6A DEB
1 54936U 22151RZ  26171.32915509  .00006104  00000-0  10510-2 0  9999
2 54936  99.1176 304.4029 0089838 352.1520   7.8269 14.66352359189989
Epoch: 2026-06-20T07:53Z
TLE epoch observation values (Epoch: 2026-06-20T07:53:58.999Z)
Latitude
-0.00008°
Longitude
-82.63826°
Altitude
612.945 km
Speed
7.586 km/s
True Right ascension
20h 17m 36s
True Declination
0° 00' 00"
Sunlit
Object was in full shadow at epoch
Visualization orbit readout
Latitude
Unknown
Longitude
Unknown
Altitude
Unknown
Speed
Unknown
Apparent Right ascension
Unknown
Apparent Declination
Unknown
Sunlit
N/A
Visualization observer readout
Local Sidereal Time
21:27:24
Azimuth
Unknown
Elevation
Unknown
Doppler factor
Unknown
Orbital elements
Apogee altitude
733.172 km
Perigee altitude
606.536 km
Semi-major axis
7,047.991 km
Eccentricity
0.00898
Inclination
99.1176°
RAAN
304.4029°
Arg. of periapsis
352.152°
True anomaly
7.96867°
Mean anomaly
7.8269°
Eccentric anomaly
7.89763°
Mean motion
3.66813 °/min
Orbital period
98.14 mins
BSTAR
0.001051
Loading maneuver chart data...
Computing Atmospheric mass density...
Loading historical data...
Loading historical data...
Loading historical data...
Loading historical data...
Loading historical data...
Loading historical data...
Loading historical data...

Documentation

Showing up to 5 results
|